FGRST (GLAST)

Last updated on Tue Jan 14 2025 00:02:33 GMT+0000 (Coordinated Universal Time)

1 33053U 08029A 25013.56825732 .00003570 00000+0 14795-3 0 9995 2 33053 25.5796 201.4727 0009509 336.9038 23.1071 15.19655653916587
UTC large
Height (km)
Speed (km/s)
/
Latitude / Longitude
Inclination (degrees)
Orbital Period (minutes)
Azimuth
Elevation
Range (km)
Doppler Factor

Next 0 passes for location: London (51.5072 / 0.1276)

Sorry there are no passes over London.